"FILENAME","TIMESTAMP","SAMPLE","STATION","LATITUDE","LONGITUDE","SAMPLE_DATE","SAMPLE_TIME","DEPTH","DEPTH_UNITS","TOTALQ","TOTALV","TOTALU","FECALQ","FECALV","FECALU","ENTEROQ","ENTEROV","ENTEROU",
"200911COLISBOO.csv","2010JAN25155337","1103091280","S0",  32.41913,-117.09728,"20091103",1213,,"m","",100,"CFU/100 mL","e",6,"CFU/100 mL","e",12,"CFU/100 mL",
"200911COLISBOO.csv","2010JAN25155337","1103091281","S10",  32.54330,-117.12500,"20091103",1205,,"m","<",2,"CFU/100 mL","<",2,"CFU/100 mL","<",2,"CFU/100 mL",
"200911COLISBOO.csv","2010JAN25155337","1103091282","S11",  32.56130,-117.13200,"20091103",1040,,"m","e",2,"CFU/100 mL","<",2,"CFU/100 mL","<",2,"CFU/100 mL",
"200911COLISBOO.csv","2010JAN25155337","1103091283","S12",  32.58570,-117.13300,"20091103",945,,"m","<",20,"CFU/100 mL","e",2,"CFU/100 mL","<",2,"CFU/100 mL",
"200911COLISBOO.csv","2010JAN25155337","1103091284","S2",  32.49870,-117.12300,"20091103",1147,,"m","e",2,"CFU/100 mL","<",2,"CFU/100 mL","e",6,"CFU/100 mL",
"200911COLISBOO.csv","2010JAN25155337","1103091285","S3",  32.52570,-117.12400,"20091103",1134,,"m","e",28,"CFU/100 mL","e",14,"CFU/100 mL","e",6,"CFU/100 mL",
"200911COLISBOO.csv","2010JAN25155337","1103091286","S4",  32.53530,-117.12500,"20091103",1140,,"m","<",20,"CFU/100 mL","<",2,"CFU/100 mL","<",2,"CFU/100 mL",
"200911COLISBOO.csv","2010JAN25155337","1103091287","S5",  32.55780,-117.13100,"20091103",1020,,"m","<",20,"CFU/100 mL","<",2,"CFU/100 mL","<",2,"CFU/100 mL",
"200911COLISBOO.csv","2010JAN25155337","1103091288","S6",  32.56630,-117.13300,"20091103",1100,,"m","<",2,"CFU/100 mL","e",2,"CFU/100 mL","<",2,"CFU/100 mL",
"200911COLISBOO.csv","2010JAN25155337","1103091289","S8",  32.63680,-117.14400,"20091103",930,,"m","e",12,"CFU/100 mL","e",2,"CFU/100 mL","e",4,"CFU/100 mL",
"200911COLISBOO.csv","2010JAN25155337","1103091290","S9",  32.67700,-117.17800,"20091103",910,,"m","e",80,"CFU/100 mL","e",2,"CFU/100 mL","",52,"CFU/100 mL",
"200911COLISBOO.csv","2010JAN25155337","1107091982","I25",  32.56117,-117.14800,"20091107",1130,2,"m","<",2,"CFU/100 mL","<",2,"CFU/100 mL","<",2,"CFU/100 mL",
"200911COLISBOO.csv","2010JAN25155337","1107091983","I25",  32.56117,-117.14800,"20091107",1130,6,"m","<",2,"CFU/100 mL","<",2,"CFU/100 mL","<",2,"CFU/100 mL",
"200911COLISBOO.csv","2010JAN25155337","1107091984","I25",  32.56117,-117.14800,"20091107",1130,9,"m","<",2,"CFU/100 mL","<",2,"CFU/100 mL","<",2,"CFU/100 mL",
"200911COLISBOO.csv","2010JAN25155337","1107091985","I26",  32.57450,-117.14700,"20091107",1140,2,"m","<",2,"CFU/100 mL","<",2,"CFU/100 mL","<",2,"CFU/100 mL",
"200911COLISBOO.csv","2010JAN25155337","1107091986","I26",  32.57450,-117.14700,"20091107",1140,6,"m","<",2,"CFU/100 mL","<",2,"CFU/100 mL","<",2,"CFU/100 mL",
"200911COLISBOO.csv","2010JAN25155337","1107091987","I26",  32.57450,-117.14700,"20091107",1140,9,"m","<",2,"CFU/100 mL","<",2,"CFU/100 mL","<",2,"CFU/100 mL",
"200911COLISBOO.csv","2010JAN25155337","1107091988","I39",  32.57233,-117.16750,"20091107",1115,2,"m","<",2,"CFU/100 mL","<",2,"CFU/100 mL","<",2,"CFU/100 mL",
"200911COLISBOO.csv","2010JAN25155337","1107091989","I39",  32.57233,-117.16750,"20091107",1115,12,"m","<",2,"CFU/100 mL","<",2,"CFU/100 mL","<",2,"CFU/100 mL",
"200911COLISBOO.csv","2010JAN25155337","1107091990","I39",  32.57233,-117.16750,"20091107",1115,18,"m","<",2,"CFU/100 mL","<",2,"CFU/100 mL","<",2,"CFU/100 mL",
"200911COLISBOO.csv","2010JAN25155337","1109091037","I12",  32.53283,-117.18300,"20091109",1006,2,"m","e",160,"CFU/100 mL","",44,"CFU/100 mL","e",16,"CFU/100 mL",
"200911COLISBOO.csv","2010JAN25155337","1109091038","I12",  32.53283,-117.18300,"20091109",1006,18,"m","",1500,"CFU/100 mL","e",380,"CFU/100 mL","",80,"CFU/100 mL",
"200911COLISBOO.csv","2010JAN25155337","1109091039","I12",  32.53283,-117.18300,"20091109",1006,27,"m","",66,"CFU/100 mL","e",14,"CFU/100 mL","<",2,"CFU/100 mL",
"200911COLISBOO.csv","2010JAN25155337","1109091040","I14",  32.54300,-117.18400,"20091109",1023,2,"m","<",2,"CFU/100 mL","<",2,"CFU/100 mL","<",2,"CFU/100 mL",
"200911COLISBOO.csv","2010JAN25155337","1109091041","I14",  32.54300,-117.18400,"20091109",1023,18,"m","e",10,"CFU/100 mL","e",2,"CFU/100 mL","e",2,"CFU/100 mL",
"200911COLISBOO.csv","2010JAN25155337","1109091042","I14",  32.54300,-117.18400,"20091109",1023,27,"m","e",4,"CFU/100 mL","<",2,"CFU/100 mL","<",2,"CFU/100 mL",
"200911COLISBOO.csv","2010JAN25155337","1109091043","I16",  32.53783,-117.18300,"20091109",957,2,"m","<",2,"CFU/100 mL","<",2,"CFU/100 mL","<",2,"CFU/100 mL",
"200911COLISBOO.csv","2010JAN25155337","1109091044","I16",  32.53783,-117.18300,"20091109",957,18,"m","e",8,"CFU/100 mL","<",2,"CFU/100 mL","e",2,"CFU/100 mL",
"200911COLISBOO.csv","2010JAN25155337","1109091045","I16",  32.53783,-117.18300,"20091109",957,27,"m","e",10,"CFU/100 mL","e",2,"CFU/100 mL","<",2,"CFU/100 mL",
"200911COLISBOO.csv","2010JAN25155337","1109091046","I18",  32.53617,-117.16100,"20091109",931,2,"m","<",2,"CFU/100 mL","<",2,"CFU/100 mL","<",2,"CFU/100 mL",
"200911COLISBOO.csv","2010JAN25155337","1109091047","I18",  32.53617,-117.16100,"20091109",931,12,"m","<",2,"CFU/100 mL","<",2,"CFU/100 mL","<",2,"CFU/100 mL",
"200911COLISBOO.csv","2010JAN25155337","1109091048","I18",  32.53617,-117.16100,"20091109",931,18,"m","e",4,"CFU/100 mL","<",2,"CFU/100 mL","e",2,"CFU/100 mL",
"200911COLISBOO.csv","2010JAN25155337","1109091049","I19",  32.53633,-117.12900,"20091109",910,2,"m","<",2,"CFU/100 mL","<",2,"CFU/100 mL","<",2,"CFU/100 mL",
"200911COLISBOO.csv","2010JAN25155337","1109091050","I19",  32.53633,-117.12900,"20091109",910,6,"m","<",2,"CFU/100 mL","<",2,"CFU/100 mL","<",2,"CFU/100 mL",
"200911COLISBOO.csv","2010JAN25155337","1109091051","I19",  32.53633,-117.12900,"20091109",910,11,"m","<",2,"CFU/100 mL","<",2,"CFU/100 mL","e",4,"CFU/100 mL",
"200911COLISBOO.csv","2010JAN25155337","1109091052","I22",  32.55333,-117.18500,"20091109",1034,2,"m","<",2,"CFU/100 mL","<",2,"CFU/100 mL","<",2,"CFU/100 mL",
"200911COLISBOO.csv","2010JAN25155337","1109091053","I22",  32.55333,-117.18500,"20091109",1034,18,"m","e",14,"CFU/100 mL","e",4,"CFU/100 mL","e",2,"CFU/100 mL",
"200911COLISBOO.csv","2010JAN25155337","1109091054","I22",  32.55333,-117.18500,"20091109",1034,27,"m","e",12,"CFU/100 mL","<",2,"CFU/100 mL","<",2,"CFU/100 mL",
"200911COLISBOO.csv","2010JAN25155337","1109091055","I23",  32.55083,-117.16500,"20091109",1045,2,"m","<",2,"CFU/100 mL","<",2,"CFU/100 mL","<",2,"CFU/100 mL",
"200911COLISBOO.csv","2010JAN25155337","1109091056","I23",  32.55083,-117.16500,"20091109",1045,12,"m","<",2,"CFU/100 mL","<",2,"CFU/100 mL","<",2,"CFU/100 mL",
"200911COLISBOO.csv","2010JAN25155337","1109091057","I23",  32.55083,-117.16500,"20091109",1045,18,"m","e",8,"CFU/100 mL","<",2,"CFU/100 mL","<",2,"CFU/100 mL",
"200911COLISBOO.csv","2010JAN25155337","1109091058","I24",  32.55667,-117.14500,"20091109",846,2,"m","<",2,"CFU/100 mL","<",2,"CFU/100 mL","<",2,"CFU/100 mL",
"200911COLISBOO.csv","2010JAN25155337","1109091059","I24",  32.55667,-117.14500,"20091109",846,6,"m","<",2,"CFU/100 mL","<",2,"CFU/100 mL","<",2,"CFU/100 mL",
"200911COLISBOO.csv","2010JAN25155337","1109091060","I24",  32.55667,-117.14500,"20091109",846,11,"m","<",2,"CFU/100 mL","<",2,"CFU/100 mL","<",2,"CFU/100 mL",
"200911COLISBOO.csv","2010JAN25155337","1109091061","I25",  32.56117,-117.14800,"20091109",840,2,"m","<",2,"CFU/100 mL","<",2,"CFU/100 mL","e",2,"CFU/100 mL",
"200911COLISBOO.csv","2010JAN25155337","1109091062","I25",  32.56117,-117.14800,"20091109",840,6,"m","<",2,"CFU/100 mL","<",2,"CFU/100 mL","<",2,"CFU/100 mL",
"200911COLISBOO.csv","2010JAN25155337","1109091063","I25",  32.56117,-117.14800,"20091109",840,9,"m","<",2,"CFU/100 mL","<",2,"CFU/100 mL","<",2,"CFU/100 mL",
"200911COLISBOO.csv","2010JAN25155337","1109091064","I26",  32.57450,-117.14700,"20091109",824,2,"m","<",2,"CFU/100 mL","<",2,"CFU/100 mL","<",2,"CFU/100 mL",
"200911COLISBOO.csv","2010JAN25155337","1109091065","I26",  32.57450,-117.14700,"20091109",824,6,"m","<",2,"CFU/100 mL","<",2,"CFU/100 mL","<",2,"CFU/100 mL",
"200911COLISBOO.csv","2010JAN25155337","1109091066","I26",  32.57450,-117.14700,"20091109",824,9,"m","<",2,"CFU/100 mL","<",2,"CFU/100 mL","e",4,"CFU/100 mL",
"200911COLISBOO.csv","2010JAN25155337","1109091067","I39",  32.57233,-117.16750,"20091109",808,2,"m","<",2,"CFU/100 mL","<",2,"CFU/100 mL","<",2,"CFU/100 mL",
"200911COLISBOO.csv","2010JAN25155337","1109091068","I39",  32.57233,-117.16750,"20091109",808,12,"m","<",2,"CFU/100 mL","<",2,"CFU/100 mL","<",2,"CFU/100 mL",
"200911COLISBOO.csv","2010JAN25155337","1109091069","I39",  32.57233,-117.16750,"20091109",808,18,"m","<",2,"CFU/100 mL","e",2,"CFU/100 mL","e",2,"CFU/100 mL",
"200911COLISBOO.csv","2010JAN25155337","1109091070","I40",  32.55383,-117.13617,"20091109",855,2,"m","<",2,"CFU/100 mL","<",2,"CFU/100 mL","<",2,"CFU/100 mL",
"200911COLISBOO.csv","2010JAN25155337","1109091071","I40",  32.55383,-117.13617,"20091109",855,6,"m","<",20,"CFU/100 mL","<",2,"CFU/100 mL","<",2,"CFU/100 mL",
"200911COLISBOO.csv","2010JAN25155337","1109091072","I40",  32.55383,-117.13617,"20091109",855,9,"m","<",20,"CFU/100 mL","<",2,"CFU/100 mL","<",2,"CFU/100 mL",
"200911COLISBOO.csv","2010JAN25155337","1110091121","I10",  32.51667,-117.15600,"20091110",1033,2,"m","<",2,"CFU/100 mL","<",2,"CFU/100 mL","<",2,"CFU/100 mL",
"200911COLISBOO.csv","2010JAN25155337","1110091122","I10",  32.51667,-117.15600,"20091110",1033,12,"m","",66,"CFU/100 mL","e",10,"CFU/100 mL","e",8,"CFU/100 mL",
"200911COLISBOO.csv","2010JAN25155337","1110091123","I10",  32.51667,-117.15600,"20091110",1033,18,"m","e",2,"CFU/100 mL","<",2,"CFU/100 mL","<",2,"CFU/100 mL",
"200911COLISBOO.csv","2010JAN25155337","1110091124","I11",  32.51333,-117.13700,"20091110",1020,2,"m","<",2,"CFU/100 mL","<",2,"CFU/100 mL","<",2,"CFU/100 mL",
"200911COLISBOO.csv","2010JAN25155337","1110091125","I11",  32.51333,-117.13700,"20091110",1020,6,"m","<",2,"CFU/100 mL","<",2,"CFU/100 mL","<",2,"CFU/100 mL",
"200911COLISBOO.csv","2010JAN25155337","1110091126","I11",  32.51333,-117.13700,"20091110",1020,11,"m","<",20,"CFU/100 mL","<",2,"CFU/100 mL","<",2,"CFU/100 mL",
"200911COLISBOO.csv","2010JAN25155337","1110091127","I13",  32.53750,-117.21200,"20091110",1120,2,"m","<",2,"CFU/100 mL","<",2,"CFU/100 mL","<",2,"CFU/100 mL",
"200911COLISBOO.csv","2010JAN25155337","1110091128","I13",  32.53750,-117.21200,"20091110",1120,18,"m","<",2,"CFU/100 mL","<",2,"CFU/100 mL","<",2,"CFU/100 mL",
"200911COLISBOO.csv","2010JAN25155337","1110091129","I13",  32.53750,-117.21200,"20091110",1120,37,"m","<",2,"CFU/100 mL","<",2,"CFU/100 mL","<",2,"CFU/100 mL",
"200911COLISBOO.csv","2010JAN25155337","1110091130","I20",  32.55700,-117.25700,"20091110",800,2,"m","<",2,"CFU/100 mL","<",2,"CFU/100 mL","<",2,"CFU/100 mL",
"200911COLISBOO.csv","2010JAN25155337","1110091131","I20",  32.55700,-117.25700,"20091110",800,18,"m","<",2,"CFU/100 mL","<",2,"CFU/100 mL","<",2,"CFU/100 mL",
"200911COLISBOO.csv","2010JAN25155337","1110091132","I20",  32.55700,-117.25700,"20091110",800,55,"m","<",2,"CFU/100 mL","<",2,"CFU/100 mL","<",2,"CFU/100 mL",
"200911COLISBOO.csv","2010JAN25155337","1110091133","I21",  32.56067,-117.22700,"20091110",1136,2,"m","<",2,"CFU/100 mL","<",2,"CFU/100 mL","<",2,"CFU/100 mL",
"200911COLISBOO.csv","2010JAN25155337","1110091134","I21",  32.56067,-117.22700,"20091110",1136,18,"m","<",2,"CFU/100 mL","<",2,"CFU/100 mL","<",2,"CFU/100 mL",
"200911COLISBOO.csv","2010JAN25155337","1110091135","I21",  32.56067,-117.22700,"20091110",1136,37,"m","e",2,"CFU/100 mL","<",2,"CFU/100 mL","<",2,"CFU/100 mL",
"200911COLISBOO.csv","2010JAN25155337","1110091136","I3",  32.46700,-117.16800,"20091110",919,2,"m","<",2,"CFU/100 mL","<",2,"CFU/100 mL","<",2,"CFU/100 mL",
"200911COLISBOO.csv","2010JAN25155337","1110091137","I3",  32.46700,-117.16800,"20091110",919,18,"m","<",2,"CFU/100 mL","<",2,"CFU/100 mL","<",2,"CFU/100 mL",
"200911COLISBOO.csv","2010JAN25155337","1110091138","I3",  32.46700,-117.16800,"20091110",919,27,"m","<",2,"CFU/100 mL","<",2,"CFU/100 mL","<",2,"CFU/100 mL",
"200911COLISBOO.csv","2010JAN25155337","1110091139","I5",  32.47167,-117.13000,"20091110",949,2,"m","<",2,"CFU/100 mL","<",2,"CFU/100 mL","<",2,"CFU/100 mL",
"200911COLISBOO.csv","2010JAN25155337","1110091140","I5",  32.47167,-117.13000,"20091110",949,6,"m","<",20,"CFU/100 mL","e",2,"CFU/100 mL","<",2,"CFU/100 mL",
"200911COLISBOO.csv","2010JAN25155337","1110091141","I5",  32.47167,-117.13000,"20091110",949,11,"m","<",20,"CFU/100 mL","<",2,"CFU/100 mL","<",2,"CFU/100 mL",
"200911COLISBOO.csv","2010JAN25155337","1110091142","I7",  32.51667,-117.25300,"20091110",822,2,"m","<",2,"CFU/100 mL","<",2,"CFU/100 mL","<",2,"CFU/100 mL",
"200911COLISBOO.csv","2010JAN25155337","1110091143","I7",  32.51667,-117.25300,"20091110",822,18,"m","<",2,"CFU/100 mL","<",2,"CFU/100 mL","<",2,"CFU/100 mL",
"200911COLISBOO.csv","2010JAN25155337","1110091144","I7",  32.51667,-117.25300,"20091110",822,52,"m","<",2,"CFU/100 mL","<",2,"CFU/100 mL","<",2,"CFU/100 mL",
"200911COLISBOO.csv","2010JAN25155337","1110091145","I8",  32.51667,-117.20200,"20091110",1104,2,"m","<",2,"CFU/100 mL","<",2,"CFU/100 mL","<",2,"CFU/100 mL",
"200911COLISBOO.csv","2010JAN25155337","1110091146","I8",  32.51667,-117.20200,"20091110",1104,18,"m","<",2,"CFU/100 mL","<",2,"CFU/100 mL","<",2,"CFU/100 mL",
"200911COLISBOO.csv","2010JAN25155337","1110091147","I8",  32.51667,-117.20200,"20091110",1104,37,"m","<",2,"CFU/100 mL","<",2,"CFU/100 mL","<",2,"CFU/100 mL",
"200911COLISBOO.csv","2010JAN25155337","1110091148","I9",  32.51167,-117.17900,"20091110",1049,2,"m","e",2,"CFU/100 mL","<",2,"CFU/100 mL","e",2,"CFU/100 mL",
"200911COLISBOO.csv","2010JAN25155337","1110091149","I9",  32.51167,-117.17900,"20091110",1049,18,"m","",42,"CFU/100 mL","e",2,"CFU/100 mL","<",2,"CFU/100 mL",
"200911COLISBOO.csv","2010JAN25155337","1110091150","I9",  32.51167,-117.17900,"20091110",1049,27,"m","e",60,"CFU/100 mL","<",2,"CFU/100 mL","<",2,"CFU/100 mL",
"200911COLISBOO.csv","2010JAN25155337","1110091360","S0",  32.41913,-117.09728,"20091110",1115,,"m","e",220,"CFU/100 mL","",40,"CFU/100 mL","",92,"CFU/100 mL",
"200911COLISBOO.csv","2010JAN25155337","1110091361","S10",  32.54330,-117.12500,"20091110",944,,"m","<",20,"CFU/100 mL","<",2,"CFU/100 mL","<",2,"CFU/100 mL",
"200911COLISBOO.csv","2010JAN25155337","1110091362","S11",  32.56130,-117.13200,"20091110",1040,,"m","<",20,"CFU/100 mL","<",2,"CFU/100 mL","<",2,"CFU/100 mL",
"200911COLISBOO.csv","2010JAN25155337","1110091363","S12",  32.58570,-117.13300,"20091110",1107,,"m","<",20,"CFU/100 mL","<",2,"CFU/100 mL","<",2,"CFU/100 mL",
"200911COLISBOO.csv","2010JAN25155337","1110091364","S2",  32.49870,-117.12300,"20091110",1020,,"m","e",2,"CFU/100 mL","<",2,"CFU/100 mL","<",2,"CFU/100 mL",
"200911COLISBOO.csv","2010JAN25155337","1110091365","S3",  32.52570,-117.12400,"20091110",1000,,"m","<",20,"CFU/100 mL","<",2,"CFU/100 mL","<",2,"CFU/100 mL",
"200911COLISBOO.csv","2010JAN25155337","1110091366","S4",  32.53530,-117.12500,"20091110",914,,"m","<",20,"CFU/100 mL","<",2,"CFU/100 mL","e",2,"CFU/100 mL",
"200911COLISBOO.csv","2010JAN25155337","1110091367","S5",  32.55780,-117.13100,"20091110",1034,,"m","<",20,"CFU/100 mL","<",2,"CFU/100 mL","e",2,"CFU/100 mL",
"200911COLISBOO.csv","2010JAN25155337","1110091368","S6",  32.56630,-117.13300,"20091110",1052,,"m","<",20,"CFU/100 mL","<",2,"CFU/100 mL","<",2,"CFU/100 mL",
"200911COLISBOO.csv","2010JAN25155337","1110091369","S8",  32.63680,-117.14400,"20091110",1124,,"m","<",20,"CFU/100 mL","<",2,"CFU/100 mL","<",2,"CFU/100 mL",
"200911COLISBOO.csv","2010JAN25155337","1110091370","S9",  32.67700,-117.17800,"20091110",1147,,"m","<",20,"CFU/100 mL","e",2,"CFU/100 mL","<",2,"CFU/100 mL",
"200911COLISBOO.csv","2010JAN25155337","1112091191","I30",  32.59533,-117.19700,"20091112",933,2,"m","<",2,"CFU/100 mL","<",2,"CFU/100 mL","<",2,"CFU/100 mL",
"200911COLISBOO.csv","2010JAN25155337","1112091192","I30",  32.59533,-117.19700,"20091112",933,18,"m","<",2,"CFU/100 mL","<",2,"CFU/100 mL","<",2,"CFU/100 mL",
"200911COLISBOO.csv","2010JAN25155337","1112091193","I30",  32.59533,-117.19700,"20091112",933,27,"m","e",2,"CFU/100 mL","<",2,"CFU/100 mL","<",2,"CFU/100 mL",
"200911COLISBOO.csv","2010JAN25155337","1112091194","I32",  32.59467,-117.13800,"20091112",1000,2,"m","<",2,"CFU/100 mL","<",2,"CFU/100 mL","<",2,"CFU/100 mL",
"200911COLISBOO.csv","2010JAN25155337","1112091195","I32",  32.59467,-117.13800,"20091112",1000,6,"m","<",2,"CFU/100 mL","<",2,"CFU/100 mL","e",2,"CFU/100 mL",
"200911COLISBOO.csv","2010JAN25155337","1112091196","I32",  32.59467,-117.13800,"20091112",1000,9,"m","<",20,"CFU/100 mL","<",2,"CFU/100 mL","<",2,"CFU/100 mL",
"200911COLISBOO.csv","2010JAN25155337","1112091197","I33",  32.62383,-117.23700,"20091112",843,2,"m","<",2,"CFU/100 mL","<",2,"CFU/100 mL","<",2,"CFU/100 mL",
"200911COLISBOO.csv","2010JAN25155337","1112091198","I33",  32.62383,-117.23700,"20091112",843,18,"m","<",2,"CFU/100 mL","<",2,"CFU/100 mL","<",2,"CFU/100 mL",
"200911COLISBOO.csv","2010JAN25155337","1112091199","I33",  32.62383,-117.23700,"20091112",843,27,"m","e",4,"CFU/100 mL","e",2,"CFU/100 mL","<",2,"CFU/100 mL",
"200911COLISBOO.csv","2010JAN25155337","1112091200","I36",  32.63917,-117.15400,"20091112",1018,2,"m","<",2,"CFU/100 mL","<",2,"CFU/100 mL","<",2,"CFU/100 mL",
"200911COLISBOO.csv","2010JAN25155337","1112091201","I36",  32.63917,-117.15400,"20091112",1018,6,"m","<",20,"CFU/100 mL","<",2,"CFU/100 mL","<",2,"CFU/100 mL",
"200911COLISBOO.csv","2010JAN25155337","1112091202","I36",  32.63917,-117.15400,"20091112",1018,11,"m","<",20,"CFU/100 mL","<",2,"CFU/100 mL","<",2,"CFU/100 mL",
"200911COLISBOO.csv","2010JAN25155337","1112091203","I37",  32.64800,-117.21633,"20091112",814,2,"m","<",2,"CFU/100 mL","<",2,"CFU/100 mL","<",2,"CFU/100 mL",
"200911COLISBOO.csv","2010JAN25155337","1112091204","I37",  32.64800,-117.21633,"20091112",814,6,"m","<",2,"CFU/100 mL","<",2,"CFU/100 mL","<",2,"CFU/100 mL",
"200911COLISBOO.csv","2010JAN25155337","1112091205","I37",  32.64800,-117.21633,"20091112",814,11,"m","<",2,"CFU/100 mL","<",2,"CFU/100 mL","<",2,"CFU/100 mL",
"200911COLISBOO.csv","2010JAN25155337","1112091206","I38",  32.66883,-117.18667,"20091112",1051,2,"m","<",2,"CFU/100 mL","<",2,"CFU/100 mL","<",2,"CFU/100 mL",
"200911COLISBOO.csv","2010JAN25155337","1112091207","I38",  32.66883,-117.18667,"20091112",1051,6,"m","<",2,"CFU/100 mL","<",2,"CFU/100 mL","<",2,"CFU/100 mL",
"200911COLISBOO.csv","2010JAN25155337","1112091208","I38",  32.66883,-117.18667,"20091112",1051,11,"m","<",20,"CFU/100 mL","e",6,"CFU/100 mL","<",2,"CFU/100 mL",
"200911COLISBOO.csv","2010JAN25155337","1117091501","S0",  32.41913,-117.09728,"20091117",1050,,"m","<",2,"CFU/100 mL","<",2,"CFU/100 mL","e",2,"CFU/100 mL",
"200911COLISBOO.csv","2010JAN25155337","1117091502","S10",  32.54330,-117.12500,"20091117",1130,,"m","<",2,"CFU/100 mL","<",2,"CFU/100 mL","e",2,"CFU/100 mL",
"200911COLISBOO.csv","2010JAN25155337","1117091503","S11",  32.56130,-117.13200,"20091117",1045,,"m","<",20,"CFU/100 mL","<",2,"CFU/100 mL","e",4,"CFU/100 mL",
"200911COLISBOO.csv","2010JAN25155337","1117091504","S12",  32.58570,-117.13300,"20091117",1010,,"m","e",6,"CFU/100 mL","e",2,"CFU/100 mL","e",2,"CFU/100 mL",
"200911COLISBOO.csv","2010JAN25155337","1117091505","S2",  32.49870,-117.12300,"20091117",1014,,"m","<",2,"CFU/100 mL","<",2,"CFU/100 mL","<",2,"CFU/100 mL",
"200911COLISBOO.csv","2010JAN25155337","1117091506","S3",  32.52570,-117.12400,"20091117",955,,"m","<",20,"CFU/100 mL","e",16,"CFU/100 mL","e",2,"CFU/100 mL",
"200911COLISBOO.csv","2010JAN25155337","1117091507","S4",  32.53530,-117.12500,"20091117",1140,,"m","<",2,"CFU/100 mL","e",2,"CFU/100 mL","<",2,"CFU/100 mL",
"200911COLISBOO.csv","2010JAN25155337","1117091508","S5",  32.55780,-117.13100,"20091117",1030,,"m","<",200,"CFU/100 mL","<",2,"CFU/100 mL","<",2,"CFU/100 mL",
"200911COLISBOO.csv","2010JAN25155337","1117091509","S6",  32.56630,-117.13300,"20091117",1055,,"m","e",60,"CFU/100 mL","e",16,"CFU/100 mL","",400,"CFU/100 mL",
"200911COLISBOO.csv","2010JAN25155337","1117091510","S8",  32.63680,-117.14400,"20091117",954,,"m","<",2,"CFU/100 mL","<",2,"CFU/100 mL","e",4,"CFU/100 mL",
"200911COLISBOO.csv","2010JAN25155337","1117091511","S9",  32.67700,-117.17800,"20091117",940,,"m","e",20,"CFU/100 mL","e",4,"CFU/100 mL","<",2,"CFU/100 mL",
"200911COLISBOO.csv","2010JAN25155337","1118091437","I25",  32.56117,-117.14800,"20091118",1127,2,"m","<",2,"CFU/100 mL","<",2,"CFU/100 mL","<",2,"CFU/100 mL",
"200911COLISBOO.csv","2010JAN25155337","1118091438","I25",  32.56117,-117.14800,"20091118",1127,6,"m","<",2,"CFU/100 mL","<",2,"CFU/100 mL","e",2,"CFU/100 mL",
"200911COLISBOO.csv","2010JAN25155337","1118091439","I25",  32.56117,-117.14800,"20091118",1127,9,"m","<",2,"CFU/100 mL","<",2,"CFU/100 mL","<",2,"CFU/100 mL",
"200911COLISBOO.csv","2010JAN25155337","1118091440","I26",  32.57450,-117.14700,"20091118",1144,2,"m","<",2,"CFU/100 mL","<",2,"CFU/100 mL","<",2,"CFU/100 mL",
"200911COLISBOO.csv","2010JAN25155337","1118091441","I26",  32.57450,-117.14700,"20091118",1144,6,"m","<",2,"CFU/100 mL","<",2,"CFU/100 mL","<",2,"CFU/100 mL",
"200911COLISBOO.csv","2010JAN25155337","1118091442","I26",  32.57450,-117.14700,"20091118",1144,9,"m","<",2,"CFU/100 mL","<",2,"CFU/100 mL","<",2,"CFU/100 mL",
"200911COLISBOO.csv","2010JAN25155337","1118091443","I39",  32.57233,-117.16750,"20091118",1110,2,"m","<",2,"CFU/100 mL","<",2,"CFU/100 mL","<",2,"CFU/100 mL",
"200911COLISBOO.csv","2010JAN25155337","1118091444","I39",  32.57233,-117.16750,"20091118",1110,12,"m","<",2,"CFU/100 mL","<",2,"CFU/100 mL","<",2,"CFU/100 mL",
"200911COLISBOO.csv","2010JAN25155337","1118091445","I39",  32.57233,-117.16750,"20091118",1110,18,"m","<",2,"CFU/100 mL","<",2,"CFU/100 mL","<",2,"CFU/100 mL",
"200911COLISBOO.csv","2010JAN25155337","1124091554","I25",  32.56117,-117.14800,"20091124",1155,2,"m","<",2,"CFU/100 mL","<",2,"CFU/100 mL","<",2,"CFU/100 mL",
"200911COLISBOO.csv","2010JAN25155337","1124091555","I25",  32.56117,-117.14800,"20091124",1155,6,"m","<",2,"CFU/100 mL","<",2,"CFU/100 mL","<",2,"CFU/100 mL",
"200911COLISBOO.csv","2010JAN25155337","1124091556","I25",  32.56117,-117.14800,"20091124",1155,9,"m","<",2,"CFU/100 mL","<",2,"CFU/100 mL","<",2,"CFU/100 mL",
"200911COLISBOO.csv","2010JAN25155337","1124091557","I26",  32.57450,-117.14700,"20091124",1205,2,"m","<",2,"CFU/100 mL","<",2,"CFU/100 mL","<",2,"CFU/100 mL",
"200911COLISBOO.csv","2010JAN25155337","1124091558","I26",  32.57450,-117.14700,"20091124",1205,6,"m","<",2,"CFU/100 mL","<",2,"CFU/100 mL","<",2,"CFU/100 mL",
"200911COLISBOO.csv","2010JAN25155337","1124091559","I26",  32.57450,-117.14700,"20091124",1205,9,"m","<",2,"CFU/100 mL","<",2,"CFU/100 mL","<",2,"CFU/100 mL",
"200911COLISBOO.csv","2010JAN25155337","1124091560","I39",  32.57233,-117.16750,"20091124",1140,2,"m","<",2,"CFU/100 mL","<",2,"CFU/100 mL","<",2,"CFU/100 mL",
"200911COLISBOO.csv","2010JAN25155337","1124091561","I39",  32.57233,-117.16750,"20091124",1140,12,"m","<",2,"CFU/100 mL","<",2,"CFU/100 mL","<",2,"CFU/100 mL",
"200911COLISBOO.csv","2010JAN25155337","1124091562","I39",  32.57233,-117.16750,"20091124",1140,18,"m","e",2,"CFU/100 mL","<",2,"CFU/100 mL","<",2,"CFU/100 mL",
"200911COLISBOO.csv","2010JAN25155337","1124091603","S0",  32.41913,-117.09728,"20091124",1055,,"m","e",1600,"CFU/100 mL","",440,"CFU/100 mL","e",80,"CFU/100 mL",
"200911COLISBOO.csv","2010JAN25155337","1124091604","S10",  32.54330,-117.12500,"20091124",1054,,"m","<",2,"CFU/100 mL","e",2,"CFU/100 mL","e",10,"CFU/100 mL",
"200911COLISBOO.csv","2010JAN25155337","1124091605","S11",  32.56130,-117.13200,"20091124",942,,"m","<",2,"CFU/100 mL","e",2,"CFU/100 mL","<",2,"CFU/100 mL",